Back to catalog

TITAN 3C TRANSTAGE DEB

LostHEO
NORAD 5457·DEBRIS·🇺🇸 United States

Launched Dec 21, 1965 from Cape Canaveral Space Force Station

Loading…

Next Passes (next 24 hours)

TLE

StaleSource: Space-Track

Epoch: Jul 22, 2025, 06:38 UTC

1 05457U 65108J   25203.27664378 -.00000135  00000-0 -17694-2 0  9996
2 05457  27.0877 161.3859 6625637 189.9418 354.3137  2.71295085  5563

Track TITAN 3C TRANSTAGE DEB in real time with AllMySat

Download on the App Store